Curacao, Curacao

12:17 PM AST on August 24, 2016 (GMT -0400)
Willemstad-Hato International

Weather History for TNCC - November, 2012

Change the Weather History Date:

Friday, November 23, 2012

  Actual Average Record
Temperature  
Mean Temperature 81 °F -  
Max Temperature 86 °F 84 °F 91 °F (2006)
Min Temperature 76 °F 75 °F 75 °F (1999)
Cooling Degree Days 16    
Growing Degree Days 31 (Base 50)    
Moisture  
Dew Point 76 °F    
Average Humidity 83    
Maximum Humidity 94    
Minimum Humidity 68    
Precipitation  
Precipitation 0.00 in 0.13 in - ()
Sea Level Pressure  
Sea Level Pressure 29.85 in    
Wind  
Wind Speed 8 mph ()    
Max Wind Speed 13 mph    
Max Gust Speed -    
Visibility 7.6 miles    
Events      
Averages and records for this station are not official NWS values.
T = Trace of Precipitation, MM = Missing Value Source: Averaged Metar Reports

Daily Weather History Graph

Daily Weather History Graph

Search for Another Location

Airport or City:

Trip Planner

Search our weather history database for the weather conditions in past years. The results will help you decide how hot, cold, wet, or windy it might be!

Date:

Astronomy

Nov. 23, 2012 Rise Set
Actual Time 6:37 AM AST 6:07 PM AST
Civil Twilight 6:14 AM AST 6:30 PM AST
Nautical Twilight 5:48 AM AST 6:56 PM AST
Astronomical Twilight 5:22 AM AST 7:21 PM AST
Moon 2:45 PM AST (11/23) 2:33 AM AST (11/23)
Length of Visible Light 12h 15m
Length of Day
11h 30m
Waxing Gibbous, 79% of the Moon is Illuminated
Nov 23
Waxing Gibbous
Nov 28
Full
Dec 6
Last Quarter
Dec 13
New
Dec 20
First Quarter

Hourly Weather History & Observations

Time (AST) Temp. Heat Index Dew Point Humidity Pressure Visibility Wind Dir Wind Speed Gust Speed Precip Events Conditions
12:00 AM 80.6 °F 87.1 °F 77.0 °F 89% 29.86 in 6.2 mi East 9.2 mph - N/A   Scattered Clouds
1:00 AM 80.6 °F 87.1 °F 77.0 °F 89% 29.86 in 6.2 mi East 8.1 mph - N/A   Scattered Clouds
2:00 AM 80 °F - 76 °F 84% 29.85 in 19 mi East 8.1 mph - -   Scattered Clouds
2:00 AM 78.8 °F - 75.2 °F 89% 29.83 in 6.2 mi East 8.1 mph - N/A   Partly Cloudy
3:00 AM 78.8 °F - 75.2 °F 89% 29.83 in 6.2 mi East 8.1 mph - N/A   Partly Cloudy
4:00 AM 78.8 °F - 75.2 °F 89% 29.83 in 6.2 mi East 8.1 mph - N/A   Partly Cloudy
5:00 AM 77 °F - 74 °F 90% 29.85 in 19 mi SE 5.8 mph - -   Partly Cloudy
5:00 AM 77.0 °F - 75.2 °F 94% 29.83 in 6.2 mi SE 5.8 mph - N/A   Scattered Clouds
6:00 AM 77.0 °F - 73.4 °F 89% 29.86 in 6.2 mi SE 4.6 mph - N/A   Partly Cloudy
7:00 AM 77.0 °F - 75.2 °F 94% 29.86 in 6.2 mi SE 6.9 mph - N/A   Partly Cloudy
8:00 AM 81 °F - 74 °F 75% 29.90 in 28 mi ESE 8.1 mph - -   Scattered Clouds
8:00 AM 82.4 °F 89.5 °F 75.2 °F 79% 29.89 in 6.2 mi ESE 8.1 mph - N/A   Partly Cloudy
9:00 AM 82.4 °F 89.5 °F 75.2 °F 79% 29.92 in 6.2 mi East 11.5 mph - N/A   Partly Cloudy
10:00 AM 84.2 °F 92.3 °F 75.2 °F 74% 29.92 in 6.2 mi East 12.7 mph - N/A   Scattered Clouds
11:00 AM 85 °F - 76 °F 68% 29.91 in 28 mi East 11.5 mph - -   Partly Cloudy
11:00 AM 84.2 °F 94.1 °F 77.0 °F 79% 29.92 in 6.2 mi East 11.5 mph - N/A   Scattered Clouds
12:00 PM 82.4 °F 89.5 °F 75.2 °F 79% 29.89 in 6.2 mi East 12.7 mph - N/A   Scattered Clouds
1:00 PM 86.0 °F 95.1 °F 75.2 °F 70% 29.86 in 6.2 mi East 11.5 mph - N/A   Scattered Clouds
2:00 PM 86.0 °F 96.9 °F 77.0 °F 74% 29.83 in 6.2 mi East 11.5 mph - N/A   Scattered Clouds
3:00 PM 84.2 °F 94.1 °F 77.0 °F 79% 29.80 in 6.2 mi East 12.7 mph - N/A   Scattered Clouds
4:00 PM 84.2 °F 94.1 °F 77.0 °F 79% 29.80 in 6.2 mi East 11.5 mph - N/A   Scattered Clouds
5:00 PM 82 °F - 76 °F 78% 29.80 in 25 mi East 10.4 mph - -   Scattered Clouds
5:00 PM 82.4 °F 90.9 °F 77.0 °F 84% 29.80 in 6.2 mi East 10.4 mph - N/A   Partly Cloudy
6:00 PM 80.6 °F 86.2 °F 75.2 °F 84% 29.80 in 6.2 mi ESE 10.4 mph - N/A   Partly Cloudy
7:00 PM 78.8 °F - 75.2 °F 89% 29.80 in 6.2 mi ESE 9.2 mph - N/A   Partly Cloudy
8:00 PM 80 °F - 75 °F 81% 29.84 in 19 mi ESE 11.5 mph - -   Scattered Clouds
8:00 PM 80.6 °F 86.2 °F 75.2 °F 84% 29.83 in 6.2 mi ESE 11.5 mph - N/A   Partly Cloudy
9:00 PM 80.6 °F 86.2 °F 75.2 °F 84% 29.86 in 6.2 mi East 12.7 mph - N/A   Partly Cloudy
10:00 PM 80.6 °F 86.2 °F 75.2 °F 84% 29.89 in 6.2 mi East 11.5 mph - N/A   Partly Cloudy
11:00 PM 78.8 °F - 75.2 °F 89% 29.89 in 6.2 mi ESE 9.2 mph - N/A   Partly Cloudy